Regional Weather Roundup
Issued by NWS Sterling, VA

Home | Current Version | Previous Version | Graphics & Text | Print | Product List | Glossary On
Versions: 1 2 3 4 5 6 7 8 9 10 11 12 13 14 15 16 17 18 19 20 21 22 23 24 25 26 27 28 29 30 31 32 33 34 35 36 37 38 39 40 41 42 43 44 45 46 47 48 49 50
399
ASUS41 KLWX 290610
RWRLWX

REGIONAL WEATHER ROUNDUP
NATIONAL WEATHER SERVICE BALTIMORE MD/WASHINGTON DC
200 AM EDT FRI JUL 29 2016

Note: "FAIR" indicates few or no clouds below 12,000 feet
with no significant weather and/or obstructions to visibility.
 TC=TEMPERATURE CELSIUS

 * =Non NWS site. Station does not report precipitation (e.g. rain,
    snow, etc.), thunder, or fog.

DCZ001-MDZ009-015-VAZ040>042-051-053>054-290700-
WASHINGTON METRO

CITY           SKY/WX    TMP DP  RH WIND       PRES   REMARKS
WASHINGTON NAT CLOUDY    78  75  90 CALM      29.83F
DULLES         LGT RAIN  74  73  97 NW5       29.85S
ANDREWS AFB    CLOUDY    75  73  94 SE5       29.82F
FT BELVOIR     LGT RAIN  75  73  94 CALM      29.83S
QUANTICO       TSTM      78  74  87 N3        29.82F
LEESBURG*      LGT RAIN  75  75 100 NE8       29.86F
MANASSAS*      CLOUDY    75  73  94 NW5       29.84S
GAITHERSBURG*  CLOUDY    73  70  88 CALM      29.89S

$$

MDZ006>007-011-014-290700-
BALTIMORE METRO

CITY           SKY/WX    TMP DP  RH WIND       PRES   REMARKS
BWI AIRPORT    LGT RAIN  75  73  93 N3        29.83F FOG
MD SCIENCE CTR   N/A     76  72  87 MISG      29.84S
MARTIN STATE   RAIN      73  73 100 CALM      29.85S
ANNAPOLIS      LGT RAIN  77  75  93 E12       29.82F
FORT MEADE*    CLOUDY    73  72  94 CALM      29.85F

$$

MDZ012-015-019>023-290700-
MARYLAND EASTERN SHORE

CITY           SKY/WX    TMP DP  RH WIND       PRES   REMARKS
OCEAN CITY       N/A    N/A N/A N/A MISG      29.82F
SALISBURY      NOT AVBL
BAY BRIDGE AP* HVY RAIN  75  73  94 SE10      29.83S FOG
CAMBRIDGE*     CLOUDY    72  72 100 E3        29.82F
EASTON*        CLOUDY    75  75 100 E3        29.87F

$$

MDZ017>025-290700-
SOUTHERN MARYLAND

CITY           SKY/WX    TMP DP  RH WIND       PRES   REMARKS
PATUXENT RIVER CLOUDY    76  73  91 VRB5      29.82F THUNDER
ST INIGOES     TSTM      77  75  93 S12G20    29.79F
LEONARDTOWN*   CLOUDY    73  72  94 CALM      29.82F

$$

MDZ003>005-290700-
NORTH CENTRAL MARYLAND

CITY           SKY/WX    TMP DP  RH WIND       PRES   REMARKS
FREDERICK*     HVY RAIN  73  73 100 N9        29.87F
HAGERSTOWN APT RAIN      71  69  93 N8        29.88S FOG

$$

MDZ501>502-290700-
WESTERN MARYLAND

CITY           SKY/WX    TMP DP  RH WIND       PRES   REMARKS
OAKLAND*       CLOUDY    61  61 100 CALM      29.99S FOG
CUMBERLAND*    CLOUDY    70  70 100 CALM      29.94F

$$

VAZ025>031-290700-
SHENANDOAH VALLEY

CITY           SKY/WX    TMP DP  RH WIND       PRES   REMARKS
WINCHESTER*    RAIN      70  70 100 NW3       29.88S
FRONT ROYAL*   CLOUDY    70  70 100 CALM      29.88S
LURAY*         RAIN     N/A N/A N/A NE5       29.88F
NEW MARKET*    CLOUDY    71  69  95 CALM      29.87F
STAUNTON*      LGT RAIN  70  69  98 N3        29.91F
WAYNESBORO*    CLOUDY    70  69  96 CALM      29.92R

$$

WVZ021-048>050-054>055-290700-
EASTERN WEST VIRGINIA PANHANDLE

CITY           SKY/WX    TMP DP  RH WIND       PRES   REMARKS
MARTINSBURG    RAIN      69  68  96 N8        29.86F FOG
PETERSBURG*    CLOUDY    70  69  98 CALM      29.91F

$$

VAZ036>039-050-290700-
CENTRAL FOOTHILLS

CITY           SKY/WX    TMP DP  RH WIND       PRES   REMARKS
CHARLOTTESVILL CLOUDY    74  71  91 CALM      29.85F
CULPEPER*      LGT RAIN  73  73  99 N5        29.84F
ORANGE*        LGT RAIN  72  72 100 NW5       29.85F
GORDONSVILLE*  CLOUDY    73  72  98 N5        29.83F
WARRENTON*     LGT RAIN  75  70  85 CALM      29.83F

$$

VAZ055>057-290700-
NORTH AND CENTRAL PIEDMONT

CITY           SKY/WX    TMP DP  RH WIND       PRES   REMARKS
FREDERICKSBRG* LGT RAIN  76  76 100 CALM      29.80F
STAFFORD*      LGT RAIN  74  73  95 NW3       29.87F

$$

NCZ024-NYZ072-PAZ021-071-VAZ022-071-290700-
OTHER REGIONAL OBSERVATIONS

CITY           SKY/WX    TMP DP  RH WIND       PRES   REMARKS
NEW YORK CITY  CLOUDY    75  72  90 E3        29.89S FOG
PHILADELPHIA   RAIN      75  72  90 E6        29.87R FOG
PITTSBURGH     PTCLDY    67  65  93 CALM      29.93S
ROANOKE        CLOUDY    73  70  90 W6        29.93S
RICHMOND       CLOUDY    74  73  97 CALM      29.82F
RALEIGH        CLEAR     79  70  74 SW7       29.88S

$$

ANZ530>537-290700-
MARINE OBSERVATIONS

STATION/POSITION TIME  TEMP    WIND        PRES
                       AIR SEA DIR/SP/G
                 (UTC) (F)     (DEG/KT/KT) (MB)
THOMAS PT LIGHT  0600   76 84  100/ 10/ 11 1011.3F
BALT KEY BRIDGE  0548           50/  6/  7 1010.0F
COVE POINT       0548          190/  5/ 12 1010.2F
LEWISETTA        0548      87  200/  6/  8 1009.6F
SOLOMONS ISLAND  0542      85  100/  4/  7   N/A
PINEY POINT      0548          190/ 16/ 18   N/A

$$





USA.gov is the U.S. government's official web portal to all federal, state and local government web resources and services.